This is the latest recevied weather packets stored in our database for station/object YU7OR-2. If no packets are shown the sender has not sent any weather packets the latest 10 day(s).
| Time | Temp. | Humidity | Pressure | Rain* | Wind** | Luminosity | Snow |
|---|---|---|---|---|---|---|---|
| 1777151629 | 12.78° C | 54% | 1010.1 hPa | 0 mm | - | - | - |
| 1777151349 | 12.78° C | 55% | 1010.2 hPa | 0 mm | - | - | - |
| 1777151097 | 12.78° C | 55% | 1010.2 hPa | 0 mm | - | - | - |
| 1777150844 | 12.78° C | 54% | 1010.2 hPa | 0 mm | - | - | - |
| 1777150574 | 12.78° C | 54% | 1010.2 hPa | 0 mm | - | - | - |
| 1777150324 | 12.78° C | 52% | 1010.2 hPa | 0 mm | - | - | - |
| 1777150074 | 12.78° C | 52% | 1010.2 hPa | 0 mm | - | - | - |
| 1777149819 | 12.78° C | 53% | 1010.2 hPa | 0 mm | - | - | - |
| 1777149559 | 13.33° C | 52% | 1010.2 hPa | 0 mm | - | - | - |
| 1777149289 | 13.33° C | 52% | 1010.2 hPa | 0 mm | - | - | - |
| 1777149039 | 13.89° C | 51% | 1010.2 hPa | 0 mm | - | - | - |
| 1777148784 | 13.89° C | 51% | 1010.2 hPa | 0 mm | - | - | - |
| 1777148529 | 15° C | 50% | 1010.2 hPa | 0 mm | - | - | - |
| 1777148229 | 16.11° C | 56% | 1010.2 hPa | 0 mm | - | - | - |
| 1777147969 | 16.11° C | 56% | 1010.2 hPa | 0 mm | - | - | - |
| 1777147674 | 16.67° C | 56% | 1010.3 hPa | 0 mm | - | - | - |
| 1777147424 | 17.22° C | 54% | 1010.2 hPa | 0 mm | - | - | - |
| 1777147179 | 17.78° C | 53% | 1010.2 hPa | 0 mm | - | - | - |
| 1777146919 | 17.78° C | 52% | 1010.2 hPa | 0 mm | - | - | - |
| 1777146649 | 17.78° C | 52% | 1010.2 hPa | 0 mm | - | - | - |
| 1777146349 | 17.78° C | 52% | 1010.2 hPa | 0 mm | - | - | - |
| 1777146104 | 18.33° C | 55% | 1010.2 hPa | 0 mm | - | - | - |
| 1777145859 | 18.33° C | 55% | 1010.2 hPa | 0 mm | - | - | - |
| 1777145584 | 18.33° C | 55% | 1010.3 hPa | 0 mm | - | - | - |
| 1777145319 | 18.33° C | 55% | 1010.3 hPa | 0 mm | - | - | - |
* Rain latest hour (hover to see other rain measurements)
** Current wind speed in m/s (hover to see current wind gust speed)